When you browse on this site, cookies collect data to enhance your experience and personalize the content and advertising you see.
Visit our Privacy Policy to learn more. By continuing to use the site, you agree to this use of cookies and data.
  • In Austria
  • List of Countries
  • For 7 days
  • Water Temperature
  • Satellite Maps
  • Weather Map
  • News
  • Weather Widgets
  • user-avatar
    Login

    Hourly Weather Tarpon Springs

    Today, 17 February, Sunday

    Time Temperature Precipitation Wind Pressure Humidity
    00:00 +21°C° 0 mm 3 mps 760 mmHg 85%
    01:00 +21°C° 0 mm 3 mps 760 mmHg 86%
    02:00 +21°C° 0 mm 3 mps 760 mmHg 87%
    03:00 +21°C° 0 mm 3 mps 760 mmHg 88%
    04:00 +21°C° 0 mm 3 mps 760 mmHg 89%
    05:00 +21°C° 0 mm 3 mps 760 mmHg 89%
    06:00 +20°C° 0 mm 3 mps 760 mmHg 90%
    07:00 +22°C° 0 mm 4 mps 761 mmHg 84%
    08:00 +23°C° 0 mm 4 mps 761 mmHg 77%
    09:00 +25°C° 0 mm 5 mps 761 mmHg 71%
    10:00 +26°C° 0 mm 5 mps 761 mmHg 67%
    11:00 +27°C° 0 mm 5 mps 761 mmHg 64%
    12:00 +28°C° 0 mm 5 mps 761 mmHg 60%
    13:00 +28°C° 0 mm 6 mps 761 mmHg 60%
    14:00 +28°C° 0 mm 6 mps 760 mmHg 61%
    15:00 +28°C° 0 mm 6 mps 760 mmHg 61%
    16:00 +27°C° 0 mm 6 mps 760 mmHg 65%
    17:00 +27°C° 0 mm 6 mps 761 mmHg 68%
    18:00 +26°C° 0 mm 5 mps 761 mmHg 71%
    19:00 +25°C° 0 mm 5 mps 761 mmHg 75%
    20:00 +25°C° 0 mm 5 mps 761 mmHg 79%
    21:00 +23°C° 0 mm 5 mps 762 mmHg 83%
    22:00 +23°C° 0 mm 5 mps 762 mmHg 84%
    23:00 +23°C° 0 mm 5 mps 762 mmHg 86%

    Tomorrow, 18 February, Monday

    Time Temperature Precipitation Wind Pressure Humidity
    00:00 +23°C° 0 mm 4 mps 762 mmHg 87%
    01:00 +23°C° 0 mm 4 mps 762 mmHg 86%
    02:00 +23°C° 0 mm 4 mps 762 mmHg 85%
    03:00 +23°C° 0 mm 4 mps 762 mmHg 84%
    04:00 +23°C° 0.1 mm 4 mps 762 mmHg 83%
    05:00 +23°C° 0.1 mm 4 mps 762 mmHg 83%
    06:00 +23°C° 0.1 mm 4 mps 762 mmHg 83%
    07:00 +25°C° 0.1 mm 4 mps 763 mmHg 80%
    08:00 +25°C° 0.1 mm 4 mps 763 mmHg 77%
    09:00 +26°C° 0.1 mm 4 mps 764 mmHg 75%
    10:00 +28°C° 0 mm 4 mps 764 mmHg 69%
    11:00 +29°C° 0 mm 4 mps 764 mmHg 63%
    12:00 +30°C° 0 mm 4 mps 764 mmHg 58%
    13:00 +30°C° 0 mm 4 mps 763 mmHg 57%
    14:00 +30°C° 0 mm 3 mps 763 mmHg 57%
    15:00 +30°C° 0 mm 3 mps 763 mmHg 57%
    16:00 +29°C° 0 mm 2 mps 763 mmHg 60%
    17:00 +28°C° 0 mm 2 mps 763 mmHg 63%
    18:00 +27°C° 0 mm 1 mps 764 mmHg 67%
    19:00 +27°C° 0 mm 1 mps 764 mmHg 69%
    20:00 +26°C° 0 mm 2 mps 765 mmHg 71%
    21:00 +26°C° 0 mm 2 mps 765 mmHg 73%
    22:00 +25°C° 0 mm 3 mps 765 mmHg 75%
    23:00 +23°C° 0 mm 4 mps 765 mmHg 78%

    Day after tomorrow, 19 February, Tuesday

    Time Temperature Precipitation Wind Pressure Humidity
    00:00 +22°C° 0 mm 6 mps 765 mmHg 80%
    01:00 +22°C° 0 mm 6 mps 765 mmHg 82%
    02:00 +22°C° 0 mm 6 mps 765 mmHg 83%
    03:00 +21°C° 0 mm 6 mps 764 mmHg 85%
    04:00 +21°C° 0 mm 6 mps 765 mmHg 86%
    05:00 +21°C° 0 mm 6 mps 765 mmHg 88%
    06:00 +21°C° 0 mm 6 mps 765 mmHg 89%
    07:00 +22°C° 0 mm 5 mps 766 mmHg 84%
    08:00 +25°C° 0 mm 5 mps 766 mmHg 80%
    09:00 +26°C° 0 mm 4 mps 766 mmHg 75%
    10:00 +27°C° 0 mm 4 mps 766 mmHg 69%
    11:00 +29°C° 0 mm 3 mps 766 mmHg 63%
    12:00 +30°C° 0 mm 2 mps 765 mmHg 57%
    13:00 +31°C° 0.1 mm 2 mps 765 mmHg 56%
    14:00 +31°C° 0.1 mm 2 mps 764 mmHg 55%
    15:00 +31°C° 0.1 mm 2 mps 763 mmHg 54%
    16:00 +30°C° 0 mm 2 mps 763 mmHg 57%
    17:00 +29°C° 0 mm 2 mps 763 mmHg 60%
    18:00 +28°C° 0 mm 2 mps 764 mmHg 63%
    19:00 +28°C° 0 mm 2 mps 764 mmHg 65%
    20:00 +27°C° 0 mm 2 mps 764 mmHg 67%
    21:00 +26°C° 0 mm 2 mps 764 mmHg 69%
    22:00 +26°C° 0 mm 3 mps 764 mmHg 71%
    23:00 +25°C° 0 mm 3 mps 764 mmHg 73%

    20 February, Wednesday

    Time Temperature Precipitation Wind Pressure Humidity
    00:00 +23°C° 0 mm 4 mps 764 mmHg 75%
    01:00 +23°C° 0 mm 4 mps 764 mmHg 78%
    02:00 +23°C° 0 mm 4 mps 763 mmHg 81%
    03:00 +22°C° 0 mm 4 mps 763 mmHg 85%
    04:00 +22°C° 0 mm 4 mps 763 mmHg 87%
    05:00 +22°C° 0 mm 4 mps 763 mmHg 89%
    06:00 +22°C° 0 mm 4 mps 763 mmHg 91%
    07:00 +23°C° 0 mm 5 mps 764 mmHg 85%
    08:00 +25°C° 0 mm 5 mps 764 mmHg 80%
    09:00 +27°C° 0 mm 6 mps 764 mmHg 75%
    10:00 +28°C° 0 mm 6 mps 764 mmHg 71%
    11:00 +28°C° 0 mm 6 mps 763 mmHg 66%
    12:00 +29°C° 0 mm 6 mps 763 mmHg 61%
    13:00 +29°C° 0 mm 6 mps 762 mmHg 60%
    14:00 +29°C° 0 mm 6 mps 762 mmHg 58%
    15:00 +30°C° 0 mm 6 mps 761 mmHg 56%
    16:00 +29°C° 0 mm 6 mps 762 mmHg 59%
    17:00 +28°C° 0 mm 5 mps 762 mmHg 63%
    18:00 +27°C° 0 mm 4 mps 762 mmHg 66%
    19:00 +26°C° 0 mm 4 mps 763 mmHg 69%
    20:00 +26°C° 0 mm 4 mps 763 mmHg 72%
    21:00 +25°C° 0 mm 3 mps 763 mmHg 75%
    22:00 +25°C° 0 mm 3 mps 763 mmHg 77%
    23:00 +25°C° 0 mm 3 mps 763 mmHg 78%

    21 February, Thursday

    Time Temperature Precipitation Wind Pressure Humidity
    00:00 +25°C° 0 mm 3 mps 763 mmHg 80%
    01:00 +24°C° 0 mm 3 mps 763 mmHg 81%
    02:00 +24°C° 0 mm 3 mps 763 mmHg 82%
    03:00 +24°C° 0 mm 3 mps 763 mmHg 83%
    04:00 +24°C° 0 mm 3 mps 763 mmHg 85%
    05:00 +22°C° 0 mm 3 mps 763 mmHg 87%
    06:00 +22°C° 0 mm 3 mps 764 mmHg 89%
    07:00 +23°C° 0 mm 4 mps 764 mmHg 83%
    08:00 +25°C° 0 mm 4 mps 764 mmHg 77%
    09:00 +26°C° 0 mm 4 mps 765 mmHg 72%
    10:00 +28°C° 0 mm 4 mps 764 mmHg 64%
    11:00 +29°C° 0 mm 4 mps 764 mmHg 57%
    12:00 +30°C° 0 mm 4 mps 763 mmHg 49%
    13:00 +30°C° 0 mm 4 mps 763 mmHg 49%
    14:00 +30°C° 0 mm 4 mps 763 mmHg 49%
    15:00 +30°C° 0 mm 4 mps 762 mmHg 49%
    16:00 +29°C° 0 mm 4 mps 762 mmHg 54%
    17:00 +28°C° 0 mm 3 mps 763 mmHg 58%
    18:00 +26°C° 0 mm 3 mps 763 mmHg 63%
    19:00 +26°C° 0 mm 2 mps 763 mmHg 65%
    20:00 +25°C° 0 mm 2 mps 764 mmHg 67%
    21:00 +25°C° 0 mm 1 mps 764 mmHg 69%
    22:00 +25°C° 0 mm 1 mps 764 mmHg 70%
    23:00 +24°C° 0 mm 1 mps 764 mmHg 71%

    22 February, Friday

    Time Temperature Precipitation Wind Pressure Humidity
    00:00 +24°C° 0 mm 1 mps 764 mmHg 72%
    01:00 +24°C° 0 mm 1 mps 764 mmHg 73%
    02:00 +24°C° 0 mm 1 mps 764 mmHg 75%
    03:00 +23°C° 0 mm 1 mps 764 mmHg 76%
    04:00 +23°C° 0 mm 1 mps 764 mmHg 77%
    05:00 +23°C° 0 mm 2 mps 765 mmHg 78%
    06:00 +23°C° 0 mm 2 mps 765 mmHg 78%
    07:00 +24°C° 0 mm 2 mps 765 mmHg 74%
    08:00 +25°C° 0 mm 2 mps 766 mmHg 69%
    09:00 +26°C° 0 mm 2 mps 766 mmHg 65%
    10:00 +27°C° 0 mm 2 mps 766 mmHg 59%
    11:00 +29°C° 0 mm 2 mps 765 mmHg 54%
    12:00 +30°C° 0 mm 2 mps 765 mmHg 48%
    13:00 +30°C° 0 mm 2 mps 765 mmHg 48%
    14:00 +30°C° 0 mm 2 mps 764 mmHg 47%
    15:00 +30°C° 0 mm 3 mps 764 mmHg 47%
    16:00 +29°C° 0 mm 2 mps 764 mmHg 53%
    17:00 +28°C° 0 mm 2 mps 764 mmHg 59%
    18:00 +26°C° 0 mm 2 mps 764 mmHg 66%
    19:00 +26°C° 0 mm 2 mps 765 mmHg 68%
    20:00 +25°C° 0 mm 2 mps 765 mmHg 69%
    21:00 +25°C° 0 mm 1 mps 765 mmHg 71%
    22:00 +25°C° 0 mm 2 mps 765 mmHg 71%
    23:00 +24°C° 0 mm 3 mps 765 mmHg 70%
    Show more